Location: Piotrkow Trybunalski
(51.4000°N, 19.6830°E)
Time: 01:18:22
(UTC+01:00)

A-11 Canister half - Pass Details

Date: 17 December 2023
Orbit: 1512 x 1687 km, 47.2° (Epoch: 23 February)

Event Time Altitude Azimuth Distance (km) Brightness Sun altitude
Exits shadow 02:50:00 18° 156° (SSE) 3,323 10.7 -43.7°
Drops below altitude 10° 02:52:11 10° 149° (SSE) 3,918 11.2 -43.4°
Sets 02:55:36 0° 143° (SE) 4,917 11.8 -42.9°
